Retour au catalogue

SL-8 R/B

ActifPO
NORAD 19325·ROCKET BODY·🇷🇺 Russia

Lancé Jul 18, 1988 depuis Plesetsk Cosmodrome

Loading…

Prochains Passages (prochaines 24 heures)

TLE

FraisSource: Space-Track

Époque: Sep 14, 2026, 20:19 UTC

1 19325U 88062B   26257.84702800  .00000109  00000-0  93111-4 0  9994
2 19325  82.9519  32.8032 0034731 130.4319  31.8225 13.77921535880205

Suivez SL-8 R/B en temps réel avec AllMySat

Download on the App Store